Hourly Data Report for November 23, 2014

All times are specified in Local Standard Time (LST). Add 1 hour to adjust for Daylight Saving Time where and when it is observed.

Metadata including Station Name, Province, Latitude, Longitude, Elevation, Climate ID, WMO ID, TC ID
GRAND ETANG
NOVA SCOTIA
Latitude: 46°33'00.000" N Longitude: 61°03'00.000" W Elevation: 12.80 m
Climate ID: 8201969 WMO ID: TC ID: WZQ
Hourly Data Report for November 23, 2014
Temp Definition
°C

Dew Point Temp Definition
°C

Rel Hum Definition
%

Wind Dir Definition
10's deg
Wind Spd Definition
km/h

Visibility Definition
km

Stn Press Definition
kPa

Hmdx Definition

Wind Chill Definition

Weather Definition

00:00 3.4 LegendMM 85 25 52 100.77 LegendNANA
01:00 3.3 LegendMM 90 25 44 100.73 LegendNANA
02:00 3.5 LegendMM 89 25 50 100.75 LegendNANA
03:00 3.5 LegendMM 87 25 44 100.72 LegendNANA
04:00 3.2 LegendMM 88 25 41 100.72 LegendNANA
05:00 2.5 LegendMM 91 24 35 100.74 LegendNANA
06:00 3.0 LegendMM 89 24 32 100.74 LegendNANA
07:00 3.2 LegendMM 88 25 34 100.79 LegendNANA
08:00 3.3 LegendMM 87 25 32 100.86 LegendNANA
09:00 3.8 LegendMM 83 26 36 100.93 LegendNANA
10:00 3.7 LegendMM 84 25 39 101.02 LegendNANA
11:00 4.0 LegendMM 83 25 37 101.07 LegendNANA
12:00 4.0 LegendMM 84 25 35 101.13 LegendNANA
13:00 4.6 LegendMM 81 27 40 101.15 LegendNANA
14:00 5.1 LegendMM 80 27 39 101.24 LegendNANA
15:00 5.4 LegendMM 79 28 40 101.34 LegendNANA
16:00 4.9 LegendMM 80 27 37 101.47 LegendNANA
17:00 4.5 LegendMM 80 28 29 101.56 LegendNANA
18:00 4.6 LegendMM 79 28 27 101.70 LegendNANA
19:00 4.3 LegendMM 77 29 29 101.76 LegendNANA
20:00 3.9 LegendMM 75 30 18 101.83 LegendNANA
21:00 3.6 LegendMM 77 31 14 101.85 LegendNANA
22:00 3.5 LegendMM 77 31 12 101.89 LegendNANA
23:00 3.8 LegendMM 77 27 17 102.04 LegendNANA

Notes on Data Quality.

Legend
  • E = Estimated
  • M = Missing
  • NA = Not Available
  • ‡ = Partner data that is not subject to review by the National Climate Archives